La Nava - Corral De Ayllón Airport

Jump to: basic info | weather | comments

Related pages: nearby airports | nearby navaids | notams | map

Basic information (top)

Codes: LECA
Location: lon 41.410801, lat -3.448330, elev 3,280 ft / 1,000 m msl
Status: small_airport

Weather (top)

Current conditions for Torrejón Airport 55nm (102km) S (rec'd 2014/09/16 11:00Z):

LETO 161100Z 20011KT 160V240 9999 FEW030 27/09 Q1010 NOSIG

Airport forecast for Torrejón Airport 55nm (102km) S (rec'd 2014/09/16 06:29Z):

TAF LETO 160500Z 1606/1706 VRB04KT CAVOK TX29/1615Z TN13/1606Z 
      BECMG 1608/1610 20014KT 
      TEMPO 1611/1619 20020G30KT PROB40 
      TEMPO 1613/1618 FEW030TCU 
      TEMPO 1700/1706 RA BKN020

Latest comments (top)

No comments yet for La Nava - Corral De Ayllón Airport

More... (top)

See also NOTAMs and nearby airports and navaids, or visit the La Nava - Corral De Ayllón Airport page at the main OurAirports website..